Regional Weather Roundup
Issued by NWS

Home | Current Version | Previous Version | Text Only | Print | Product List | Glossary On
Versions: 1 2 3 4 5 6 7 8 9 10 11 12 13 14 15 16 17 18 19 20 21 22 23 24 25 26 27 28 29 30 31 32 33 34 35 36 37 38 39 40 41 42 43 44 45 46 47 48 49 50
000
ASCA42 TJSJ 070710
RWRPR
PUERTO RICO/U.S. VIRGIN ISLANDS HOURLY WEATHER ROUNDUP
NATIONAL WEATHER SERVICE SAN JUAN PR
300 AM AST THU MAY 07 2015

PRZ001-004-070800-
PUERTO RICO

CITY           SKY/WX    TMP DP  RH WIND       PRES   REMARKS
SAN JUAN LMM   CLEAR     79  72  78 E7        30.02F
PONCE          PTCLDY    75  66  73 NE6       30.00S
CEIBA          CLOUDY    81  70  69 E10       30.05S
$$

PRZ006-007-070800-
U.S. VIRGIN ISLANDS

CITY           SKY/WX    TMP DP  RH WIND       PRES   REMARKS
CHARLOTTE AMA  CLOUDY    81  70  69 E14G23    30.02F
CHRISTIANSTED  CLOUDY    79  68  69 E13G21    30.03S
$$

HOURLY WEATHER ROUNDUP FOR THE NEWS MEDIA

CITY           SKY/WX    TMP DP  RH WIND       PRES   REMARKS
ORLANDO        CLEAR     69  65  86 NW6       30.02F
NEW YORK       CLEAR     55  45  68 CALM      30.22F
NEWARK         CLEAR     56  48  74 CALM      30.21F
CHICAGO        PTCLDY    55  50  83 E3        30.06F
HARTFORD       CLEAR     42  36  79 CALM      30.19F
BOSTON         PTCLDY    57  31  37 SW7       30.18F
DALLAS         CLOUDY    74  68  81 S14       29.90R
PHILADELPHIA   MOCLDY    58  51  78 E5        30.22F
LOS ANGELES    MOCLDY    57  51  80 W13       29.88F
WASHINGTON DC  CLOUDY    62  56  80 NE5       30.18F


USA.gov is the U.S. government's official web portal to all federal, state and local government web resources and services.